Flag for Germany Weather past 2 weeks in Bergisch Gladbach, North Rhine-Westphalia, Germany

Now
57 °F

Fog.


Feels Like: 57 °F
Forecast: 57 / 78 °F
Wind: 2 mph from South

Location: Koeln / Bonn

Current Time: Jul 31, 2014 at 6:26:09 AM

Latest Report: Jul 31, 2014 at 5:50 AM


Visibility: N/A

Pressure: 30.01 "Hg

Humidity: 94%

Dew point: 55 °F

Location of Bergisch GladbachLocation

Historic Weather in Bergisch Gladbach — Graph

°F

Bergisch Gladbach temperature yesterday

Maximum temperature yesterday: 75 °F (at 3:20 PM)
Minimum temperature yesterday: 64 °F (at 4:50 AM)
Average temperature yesterday: 68 °F

Past Weeks' High & Low Weather Summary

 TemperatureHumidityPressure
High91 °F (Jul 19, 2:50 PM)100% (Jul 21, 7:20 AM)30.18 "Hg (Jul 21, 7:20 AM)
Low54 °F (Jul 25, 4:20 AM)26% (Jul 19, 2:50 PM)29.77 "Hg (Jul 20, 2:20 AM)
Average71 °F73%29.95 "Hg
* Reported Jul 16 5:20 AM — Jul 31 5:20 AM, Bergisch Gladbach, Weather by CustomWeather, © 2014

Note: Actual official high and low records may vary slightly from our data, if they occured in-between our weather recording intervals... More about our weather records

Advertising

Bergisch Gladbach weather history for previous 24 hours

 ConditionsComfort  
Time TempWeatherWind HumidityBarometerVisibility
5:20 AM
Jul 31
57 °FFog.1 mph94%30.01 "HgN/A
4:50 AM59 °FClear.3 mph88%30.01 "Hg10 mi
4:20 AM59 °FPassing clouds.2 mph88%30.01 "HgN/A
3:50 AM61 °FPassing clouds.7 mph88%30.01 "HgN/A
3:20 AM61 °FPassing clouds.5 mph88%30.01 "HgN/A
2:50 AM61 °FPassing clouds.3 mph88%29.98 "HgN/A
2:20 AM61 °FPassing clouds.3 mph88%29.98 "HgN/A
1:50 AM61 °FPassing clouds.6 mph88%29.98 "HgN/A
1:20 AM61 °FClear.5 mph88%29.98 "Hg10 mi
12:50 AM63 °FClear.2 mph83%29.98 "Hg10 mi
12:20 AM63 °FClear.3 mph83%29.98 "Hg10 mi
11:50 PM
Jul 30
64 °FClear.3 mph78%29.98 "Hg10 mi
11:20 PM64 °FClear.5 mph78%29.98 "Hg10 mi
10:50 PM66 °FPassing clouds.6 mph78%29.98 "HgN/A
10:20 PM68 °FPassing clouds.5 mph69%29.95 "HgN/A
9:50 PM68 °FBroken clouds.7 mph69%29.95 "HgN/A
9:20 PM68 °FPartly sunny.5 mph69%29.95 "HgN/A
8:50 PM68 °FSunny.3 mph69%29.95 "Hg10 mi
8:20 PM70 °FPartly sunny.6 mph64%29.92 "HgN/A
7:50 PM70 °FScattered clouds.6 mph60%29.92 "HgN/A
7:20 PM70 °FScattered clouds.6 mph64%29.92 "HgN/A
6:50 PM72 °FScattered clouds.9 mph61%29.92 "HgN/A
6:20 PM72 °FScattered clouds.12 mph57%29.89 "HgN/A
5:50 PM73 °FScattered clouds.12 mph53%29.89 "HgN/A
5:20 PM73 °FScattered clouds.15 mph57%29.89 "HgN/A
4:50 PM75 °FScattered clouds.13 mph47%29.89 "HgN/A
4:20 PM75 °FScattered clouds.13 mph47%29.89 "HgN/A
3:50 PM73 °FScattered clouds.14 mph50%29.89 "HgN/A
3:20 PM75 °FScattered clouds.12 mph50%29.89 "HgN/A
2:50 PM73 °FScattered clouds.13 mph53%29.89 "HgN/A
2:20 PM73 °FScattered clouds.9 mph57%29.89 "HgN/A
1:50 PM73 °FScattered clouds.14 mph53%29.89 "HgN/A
1:20 PM73 °FScattered clouds.12 mph53%29.89 "HgN/A
12:50 PM70 °FScattered clouds.13 mph64%29.89 "HgN/A
12:20 PM70 °FScattered clouds.13 mph64%29.89 "HgN/A
11:50 AM70 °FScattered clouds.12 mph64%29.89 "HgN/A
11:20 AM68 °FScattered clouds.13 mph73%29.89 "HgN/A
10:50 AM66 °FScattered clouds.13 mph73%29.89 "HgN/A
10:20 AM66 °FPartly sunny.10 mph78%29.89 "HgN/A
9:50 AM66 °FBroken clouds.12 mph78%29.86 "HgN/A
9:20 AM64 °FPartly sunny.9 mph88%29.86 "HgN/A
8:50 AM64 °FBroken clouds.9 mph88%29.86 "HgN/A
8:20 AM64 °FBroken clouds.10 mph88%29.86 "HgN/A
7:50 AM64 °FBroken clouds.13 mph88%29.83 "HgN/A
7:20 AM64 °FBroken clouds.13 mph88%29.83 "Hg6 mi
6:50 AM64 °FPartly cloudy.12 mph88%29.83 "Hg4 mi
6:20 AM64 °FLow clouds.13 mph94%29.83 "Hg4 mi
Weather by CustomWeather, © 2014

See weather overviewHow to use our weather pages